Regional Weather Roundup
Issued by NWS

Home | Current Version | Previous Version | Text Only | Print | Product List | Glossary Off
Versions: 1 2 3 4 5 6 7 8 9 10 11 12 13 14 15 16 17 18 19 20 21 22 23 24 25 26 27 28 29 30 31 32 33 34 35 36 37 38 39 40 41 42 43 44 45 46 47 48 49 50

000
ASUS43 KFSD 280902
RWRSD

WEATHER ROUNDUP FOR SOUTH DAKOTA
NATIONAL WEATHER SERVICE SIOUX FALLS SD
400 AM CDT WED SEP 28 2016

NOTE: "FAIR" INDICATES FEW OR NO CLOUDS BELOW 12,000 FEET WITH NO
SIGNIFICANT WEATHER AND/OR OBSTRUCTIONS TO VISIBILITY.


SDZ001>005-009-010-012>017-281000-
NORTHWEST AND NORTH CENTRAL SOUTH DAKOTA

CITY           SKY/WX    TMP DP  RH WIND       PRES   REMARKS
BUFFALO          N/A     57  45  64 NW3       30.06R
MOBRIDGE       CLOUDY    45  37  73 E6        30.10R
$$

SDZ012>016-024>037-041>051-057-063-072>074-281000-
SOUTHWEST AND SOUTH CENTRAL SOUTH DAKOTA

CITY           SKY/WX    TMP DP  RH WIND       PRES   REMARKS
RAPID CTY ARPT CLEAR     54  41  61 NW10      30.13S
PIERRE         CLOUDY    44  38  79 NE8       30.09R
CUSTER         CLEAR     48  35  60 NW3       30.25R
ELLSWORTH AFB  CLEAR     51  42  71 NW7       30.12S
PHILIP         CLEAR     44  41  89 W3        30.10R
PINE RIDGE     CLEAR     40  37  89 CALM      30.13R
WINNER         FAIR      47  42  83 W3        30.09R HAZE
$$

SDZ004>011-016>023-039-040-281000-
NORTHEAST SOUTH DAKOTA

CITY           SKY/WX    TMP DP  RH WIND       PRES   REMARKS
ABERDEEN       CLOUDY    39  36  89 N8        30.11R
WATERTOWN      CLOUDY    47  43  86 NE9       30.06R
SISSETON         N/A     41  39  93 N6        30.08R
$$

SDZ017-020-022-023-036>040-048>070-281000-
SOUTHEAST SOUTH DAKOTA

CITY           SKY/WX    TMP DP  RH WIND       PRES   REMARKS
SIOUX FALLS    CLEAR     47  42  83 N9        30.04R
HURON          CLOUDY    36  35  96 N5        30.08R
CHAMBERLAIN    CLOUDY    50  38  61 CALM      30.10R
MITCHELL       CLOUDY    41  37  86 NW7       30.08R
YANKTON        PTCLDY    46  37  71 N7        30.03R
$$

ABBREVIATIONS USED IN REMARKS
   TC - TEMPERATURE IN CELSIUS
  WCI - WIND CHILL INDEX
   HX - HEAT INDEX
  VSB - VISIBILITY





USA.gov is the U.S. government's official web portal to all federal, state and local government web resources and services.